EW8016 Weather Reports


Display with metric or nautical units.
time (UTC)temp
F
wind
direction
speed
MPH
gust
MPH
rain 1hr
in
rain 24hr
in
rain mn
in
humidity
%
barometer
mb
20260507123720 63 53 2.0 8.0 0.00 0.00 0.00 54 1015.8
20260507123003 64 44 3.0 9.0 0.00 0.00 0.00 53 1015.7
20260507122506 63 36 3.0 11.0 0.00 0.00 0.00 56 1015.7
20260507122003 63 36 3.0 11.0 0.00 0.00 0.00 56 1015.7
20260507121505 63 38 3.0 10.0 0.00 0.00 0.00 56 1015.7
20260507121008 63 38 3.0 9.0 0.00 0.00 0.00 55 1015.8
20260507120718 63 35 4.0 15.0 0.00 0.00 0.00 54 1015.9
20260507120005 63 11 3.0 15.0 0.00 0.00 0.00 59 1015.9
20260507115504 63 14 3.0 9.0 0.00 0.01 0.00 58 1015.8
20260507115004 63 34 3.0 9.0 0.00 0.01 0.00 58 1015.9
20260507114503 63 28 3.0 12.0 0.00 0.01 0.00 59 1015.8
20260507114004 63 41 3.0 12.0 0.00 0.01 0.00 57 1015.9
20260507113503 62 38 3.0 9.0 0.00 0.01 0.00 58 1015.9
20260507113010 62 17 4.0 9.0 0.00 0.01 0.00 58 1015.9
20260507112505 62 23 5.0 14.0 0.00 0.01 0.00 59 1015.9
20260507112223 62 28 4.0 14.0 0.00 0.01 0.00 57 1015.8
20260507111503 62 55 3.0 9.0 0.00 0.02 0.00 60 1015.9
20260507111004 62 46 3.0 9.0 0.00 0.02 0.00 58 1016.0
20260507110503 62 49 3.0 10.0 0.00 0.02 0.00 60 1016.0
20260507110005 62 51 3.0 11.0 0.00 0.02 0.00 61 1016.0
20260507105503 61 50 3.0 11.0 0.00 0.02 0.00 60 1016.1
20260507105004 61 49 4.0 11.0 0.00 0.02 0.00 60 1016.0
20260507104504 61 29 4.0 11.0 0.00 0.02 0.00 62 1016.0
20260507104005 61 5 4.0 10.0 0.00 0.02 0.00 64 1016.0
20260507103503 61 8 3.0 9.0 0.00 0.02 0.00 62 1016.0
20260507103004 60 26 3.0 10.0 0.00 0.02 0.00 63 1016.0
20260507102503 60 31 4.0 10.0 0.00 0.02 0.00 62 1016.0
20260507102220 60 30 4.0 11.0 0.00 0.02 0.00 63 1016.0
20260507101719 60 16 5.0 13.0 0.00 0.02 0.00 64 1015.8
20260507101003 60 19 4.0 13.0 0.00 0.02 0.00 66 1015.9
20260507100503 60 8 3.0 9.0 0.00 0.02 0.00 68 1015.9
20260507100005 59 355 4.0 10.0 0.00 0.02 0.00 67 1015.9
20260507095506 59 358 5.0 12.0 0.00 0.02 0.00 67 1015.8
20260507095218 59 13 4.0 12.0 0.00 0.02 0.00 67 1015.7
20260507094504 59 5 4.0 11.0 0.00 0.02 0.00 67 1015.8
20260507094003 59 1 4.0 11.0 0.00 0.03 0.00 69 1015.7
20260507093721 59 9 4.0 11.0 0.00 0.03 0.00 70 1015.7
20260507093004 59 7 4.0 10.0 0.00 0.03 0.00 71 1015.6
20260507092503 58 12 4.0 10.0 0.00 0.03 0.00 69 1015.6
20260507092003 58 24 3.0 10.0 0.00 0.03 0.00 70 1015.6
20260507091503 58 8 3.0 11.0 0.00 0.03 0.00 72 1015.5
20260507091218 58 10 3.0 11.0 0.00 0.03 0.00 72 1015.4
20260507090504 58 358 3.0 11.0 0.00 0.03 0.00 72 1015.4
20260507090004 58 6 4.0 11.0 0.00 0.03 0.00 73 1015.4
20260507085504 57 22 3.0 9.0 0.00 0.03 0.00 73 1015.4
20260507085004 57 7 3.0 8.0 0.00 0.03 0.00 73 1015.4
20260507084506 57 353 3.0 9.0 0.00 0.03 0.00 74 1015.4
20260507084005 57 343 4.0 11.0 0.00 0.03 0.00 75 1015.4
20260507083504 56 3 3.0 11.0 0.00 0.03 0.00 74 1015.3
20260507083004 56 9 3.0 9.0 0.00 0.03 0.00 75 1015.4
20260507082716 56 12 3.0 9.0 0.00 0.03 0.00 76 1015.4
20260507082005 56 18 3.0 7.0 0.00 0.03 0.00 76 1015.4
20260507081503 56 354 3.0 10.0 0.00 0.04 0.00 76 1015.4
20260507081004 56 6 3.0 10.0 0.00 0.04 0.00 76 1015.4
20260507080503 56 18 2.0 8.0 0.00 0.04 0.00 78 1015.4
20260507080005 55 32 3.0 8.0 0.00 0.04 0.00 78 1015.2
20260507075507 55 46 2.0 8.0 0.00 0.04 0.00 78 1015.2
20260507075005 55 44 2.0 6.0 0.00 0.04 0.00 80 1015.2
20260507074504 54 45 2.0 6.0 0.00 0.04 0.00 79 1015.2
20260507074006 54 47 3.0 5.0 0.00 0.04 0.00 81 1015.2
20260507073505 53 45 2.0 5.0 0.00 0.04 0.00 82 1015.0
20260507073003 53 16 2.0 7.0 0.00 0.04 0.00 82 1015.1
20260507072504 53 26 2.0 7.0 0.00 0.04 0.00 84 1015.0
20260507072004 52 38 3.0 8.0 0.00 0.04 0.00 84 1015.1
20260507071503 52 30 2.0 8.0 0.00 0.04 0.00 84 1015.0
20260507071005 52 30 2.0 7.0 0.00 0.04 0.00 85 1014.9
20260507070504 51 29 3.0 7.0 0.00 0.04 0.00 85 1014.9
20260507070005 51 35 3.0 7.0 0.00 0.04 0.00 86 1014.9
20260507065718 51 36 2.0 7.0 0.00 0.04 0.00 86 1014.8
20260507065003 50 32 2.0 8.0 0.00 0.04 0.00 88 1014.9
20260507064718 50 36 3.0 8.0 0.00 0.04 0.00 88 1014.9
20260507064003 49 11 3.0 8.0 0.00 0.05 0.00 89 1014.8
20260507063505 48 1 3.0 9.0 0.00 0.05 0.00 89 1014.9
20260507063003 48 359 3.0 10.0 0.00 0.05 0.00 90 1014.7
20260507062505 48 349 4.0 10.0 0.00 0.06 0.00 90 1014.8
20260507062003 47 358 3.0 8.0 0.00 0.06 0.00 91 1014.7
20260507061504 46 11 3.0 7.0 0.00 0.06 0.00 92 1014.7
20260507061003 46 23 1.0 8.0 0.00 0.06 0.00 92 1014.6
20260507060503 45 1 1.0 8.0 0.00 0.06 0.00 93 1014.6
20260507060003 45 348 1.0 4.0 0.00 0.06 0.00 93 1014.5
20260507055506 45 345 2.0 5.0 0.00 0.06 0.00 93 1014.5
20260507055003 44 344 2.0 5.0 0.00 0.06 0.00 93 1014.5
20260507054505 44 342 2.0 5.0 0.00 0.06 0.00 94 1014.3
20260507054003 44 345 2.0 5.0 0.00 0.06 0.00 94 1014.3
20260507053505 43 356 2.0 5.0 0.00 0.06 0.00 94 1014.4
20260507053008 43 2 1.0 5.0 0.00 0.06 0.00 94 1014.3
20260507052505 42 352 0.0 4.0 0.00 0.06 0.00 94 1014.3
20260507052003 42 12 0.0 4.0 0.00 0.06 0.00 94 1014.3
20260507051717 42 9 1.0 4.0 0.00 0.06 0.00 94 1014.2
20260507051003 42 9 1.0 3.0 0.00 0.06 0.00 94 1014.2
20260507050505 42 13 1.0 3.0 0.00 0.06 0.00 94 1014.1
20260507050005 42 13 1.0 3.0 0.00 0.06 0.00 95 1014.0
20260507045717 41 13 1.0 3.0 0.00 0.06 0.00 95 1014.0
20260507045003 41 13 0.0 3.0 0.00 0.06 0.00 95 1014.0
20260507044504 41 13 0.0 3.0 0.00 0.06 0.00 94 1013.9
20260507044003 41 13 0.0 2.0 0.00 0.06 0.00 94 1014.0
20260507043503 40 0 0.0 0.0 0.00 0.06 0.00 94 1013.9
20260507043003 40 13 0.0 3.0 0.00 0.06 0.00 94 1013.9
20260507042503 40 13 1.0 3.0 0.00 0.06 0.00 94 1013.9
20260507042006 40 13 0.0 3.0 0.00 0.06 0.00 94 1013.7
20260507041503 40 0 0.0 0.0 0.00 0.06 0.00 94 1013.7
20260507041003 40 13 0.0 1.0 0.00 0.06 0.00 94 1013.6
20260507040503 40 13 1.0 2.0 0.00 0.06 0.00 94 1013.6
20260507040006 40 13 1.0 3.0 0.00 0.06 0.00 94 1013.5
20260507035504 40 13 1.0 3.0 0.00 0.06 0.00 94 1013.5
20260507035005 40 13 0.0 2.0 0.00 0.06 0.00 94 1013.5
20260507034506 40 13 0.0 2.0 0.00 0.06 0.00 94 1013.5
20260507034003 40 13 1.0 3.0 0.00 0.06 0.00 93 1013.5
20260507033503 41 13 1.0 3.0 0.00 0.06 0.00 93 1013.4
20260507033005 41 13 1.0 3.0 0.00 0.06 0.00 93 1013.5
20260507032503 41 16 1.0 3.0 0.00 0.06 0.00 93 1013.5
20260507032004 41 14 1.0 4.0 0.00 0.06 0.00 93 1013.5
20260507031508 41 360 1.0 4.0 0.00 0.06 0.00 93 1013.5
20260507031006 41 355 1.0 3.0 0.00 0.06 0.00 93 1013.5
20260507030719 41 355 1.0 3.0 0.00 0.06 0.00 93 1013.5
20260507030220 41 0 0.0 0.0 0.00 0.06 0.00 93 1013.5
20260507025506 41 360 1.0 3.0 0.00 0.06 0.00 93 1013.4
20260507025004 41 352 1.0 3.0 0.00 0.06 0.00 93 1013.4
20260507024505 42 351 1.0 3.0 0.00 0.06 0.00 93 1013.4
20260507024003 42 354 1.0 5.0 0.00 0.06 0.00 93 1013.3
20260507023504 42 349 0.0 5.0 0.00 0.06 0.00 92 1013.2
20260507023003 42 0 0.0 0.0 0.00 0.06 0.00 92 1013.3
20260507022505 42 0 0.0 0.0 0.00 0.07 0.00 92 1013.2
20260507022217 42 0 0.0 0.0 0.00 0.07 0.00 92 1013.1
20260507021719 42 0 0.0 0.0 0.00 0.07 0.00 92 1013.1
20260507021003 42 0 0.0 0.0 0.00 0.07 0.00 92 1013.0
20260507020504 42 355 1.0 3.0 0.00 0.07 0.00 92 1012.9
20260507020006 42 353 1.0 3.0 0.00 0.07 0.00 92 1013.0
20260507015505 43 350 1.0 3.0 0.00 0.07 0.00 92 1012.9
20260507015007 43 350 1.0 3.0 0.00 0.08 0.00 92 1013.0
20260507014504 43 350 1.0 4.0 0.00 0.08 0.00 92 1013.0
20260507014005 43 350 1.0 4.0 0.00 0.08 0.00 92 1013.0
20260507013718 43 346 1.0 4.0 0.00 0.08 0.00 92 1012.9
20260507013004 43 355 2.0 4.0 0.00 0.08 0.00 92 1012.9
20260507012505 43 351 2.0 4.0 0.00 0.08 0.00 91 1012.9
20260507012004 44 340 1.0 4.0 0.00 0.08 0.00 91 1012.9
20260507011503 44 336 1.0 4.0 0.00 0.08 0.00 91 1012.8
20260507011003 44 340 1.0 4.0 0.00 0.09 0.00 91 1012.7
20260507010506 44 346 1.0 4.0 0.00 0.09 0.00 91 1012.8
20260507010003 44 350 1.0 4.0 0.00 0.09 0.00 91 1012.7
20260507005505 44 350 1.0 4.0 0.00 0.09 0.00 91 1012.6
20260507005005 44 350 1.0 3.0 0.00 0.09 0.00 90 1012.6
20260507004504 44 349 1.0 4.0 0.00 0.09 0.00 90 1012.7
20260507004003 44 349 2.0 6.0 0.00 0.09 0.00 90 1012.6
20260507003505 44 358 2.0 6.0 0.00 0.09 0.00 90 1012.5
20260507003003 45 359 2.0 4.0 0.00 0.09 0.00 90 1012.5
20260507002503 45 349 2.0 5.0 0.00 0.09 0.00 89 1012.4
20260507002005 45 348 2.0 6.0 0.00 0.09 0.00 89 1012.5
20260507001504 45 348 2.0 6.0 0.00 0.09 0.00 89 1012.5
20260507001004 46 350 2.0 5.0 0.00 0.09 0.00 89 1012.5
20260507000505 46 356 2.0 5.0 0.00 0.09 0.00 89 1012.6
20260507000216 46 1 2.0 6.0 0.00 0.09 0.00 89 1012.6
20260506235506 46 4 3.0 9.0 0.00 0.09 0.00 88 1012.5
20260506235220 46 3 3.0 9.0 0.00 0.09 0.00 88 1012.5
20260506234719 46 360 3.0 9.0 0.00 0.09 0.00 88 1012.5
20260506234004 46 353 3.0 9.0 0.00 0.09 0.00 88 1012.5
20260506233503 47 350 3.0 9.0 0.00 0.09 0.00 87 1012.5
20260506233218 47 349 3.0 9.0 0.00 0.09 0.00 87 1012.5
20260506232719 47 347 3.0 9.0 0.00 0.09 0.00 87 1012.5
20260506232003 47 348 3.0 8.0 0.00 0.09 0.00 86 1012.6
20260506231503 47 360 2.0 5.0 0.00 0.09 0.00 86 1012.6
20260506231003 48 3 2.0 8.0 0.00 0.09 0.00 86 1012.6
20260506230505 48 354 3.0 8.0 0.00 0.09 0.00 86 1012.5
20260506230003 48 357 2.0 8.0 0.00 0.09 0.00 86 1012.5
20260506225504 48 350 2.0 5.0 0.00 0.09 0.00 86 1012.5
20260506225006 48 350 2.0 7.0 0.00 0.09 0.00 86 1012.5
20260506224503 48 2 3.0 8.0 0.00 0.09 0.00 85 1012.4
20260506224222 48 5 3.0 8.0 0.00 0.09 0.00 85 1012.4
20260506223505 49 353 2.0 8.0 0.00 0.09 0.00 85 1012.4
20260506223004 49 351 2.0 7.0 0.00 0.09 0.00 85 1012.3
20260506222717 49 354 2.0 7.0 0.00 0.09 0.00 85 1012.3
20260506222003 49 2 3.0 8.0 0.00 0.09 0.00 84 1012.4
20260506221505 49 1 3.0 8.0 0.00 0.09 0.00 84 1012.4
20260506221004 50 351 3.0 10.0 0.00 0.09 0.00 84 1012.4
20260506220505 50 347 4.0 10.0 0.00 0.09 0.00 85 1012.3
20260506220006 50 347 3.0 8.0 0.00 0.09 0.00 85 1012.3
20260506215503 50 355 2.0 5.0 0.00 0.09 0.09 85 1012.3
20260506215218 50 352 2.0 6.0 0.00 0.09 0.09 85 1012.3
20260506214717 50 345 2.0 8.0 0.00 0.09 0.09 84 1012.3
20260506214003 50 342 2.0 8.0 0.00 0.09 0.09 84 1012.3
20260506213510 50 344 1.0 4.0 0.00 0.09 0.09 84 1012.3
20260506213218 50 334 0.0 3.0 0.00 0.09 0.09 84 1012.1
20260506212504 50 333 0.0 3.0 0.00 0.09 0.09 84 1012.1
20260506212006 50 334 1.0 3.0 0.00 0.09 0.09 84 1012.0
20260506211509 50 339 1.0 3.0 0.00 0.09 0.09 84 1012.0
20260506211009 51 340 1.0 3.0 0.00 0.09 0.09 83 1012.0
20260506210718 51 334 1.0 3.0 0.00 0.09 0.09 83 1012.0
20260506210005 51 322 0.0 3.0 0.00 0.09 0.09 83 1012.1
20260506205508 51 0 0.0 0.0 0.00 0.09 0.09 83 1011.9
20260506205004 51 0 0.0 0.0 0.00 0.09 0.09 82 1011.9
20260506204504 51 0 0.0 0.0 0.00 0.09 0.09 82 1011.9
20260506204005 51 355 0.0 3.0 0.00 0.09 0.09 82 1011.9
20260506203504 51 355 0.0 3.0 0.00 0.09 0.09 82 1011.9
20260506203006 51 355 0.0 3.0 0.00 0.09 0.09 82 1011.9
20260506202505 51 355 0.0 3.0 0.00 0.09 0.09 82 1011.9
20260506202004 51 355 1.0 3.0 0.00 0.09 0.09 81 1011.8
20260506201503 51 355 1.0 3.0 0.00 0.09 0.09 82 1011.8
20260506201005 51 6 1.0 3.0 0.00 0.09 0.09 81 1011.8
20260506200504 51 16 1.0 3.0 0.00 0.09 0.09 81 1011.8
20260506200217 51 17 1.0 3.0 0.00 0.09 0.09 81 1011.8
20260506195718 51 11 1.0 2.0 0.00 0.09 0.09 80 1011.6
20260506195003 51 11 0.0 3.0 0.00 0.09 0.09 80 1011.6
20260506194503 51 12 1.0 3.0 0.00 0.09 0.09 80 1011.5
20260506194005 51 14 1.0 4.0 0.00 0.09 0.09 80 1011.4
20260506193511 51 16 1.0 4.0 0.00 0.09 0.09 80 1011.5
20260506193003 51 6 1.0 4.0 0.00 0.09 0.09 80 1011.4
20260506192718 51 2 1.0 4.0 0.00 0.09 0.09 80 1011.4
20260506192004 51 17 1.0 4.0 0.00 0.09 0.09 80 1011.3
20260506191506 52 19 1.0 5.0 0.00 0.09 0.09 80 1011.2
20260506191003 52 9 1.0 5.0 0.00 0.09 0.09 80 1011.1
20260506190718 52 0 0.0 0.0 0.00 0.09 0.09 80 1011.2
20260506190006 52 5 0.0 2.0 0.00 0.09 0.09 79 1011.1
20260506185503 52 5 0.0 4.0 0.00 0.09 0.09 79 1011.0
20260506185216 52 11 0.0 4.0 0.00 0.09 0.09 79 1011.0
20260506184719 52 32 1.0 4.0 0.00 0.09 0.09 79 1010.9
20260506184008 52 10 1.0 4.0 0.00 0.09 0.09 79 1010.8
20260506183503 52 356 0.0 3.0 0.00 0.09 0.09 78 1010.7
20260506183011 52 18 1.0 4.0 0.00 0.09 0.09 78 1010.7
20260506182503 52 41 1.0 4.0 0.00 0.09 0.09 78 1010.6
20260506182003 52 51 0.0 2.0 0.00 0.09 0.09 78 1010.6
20260506181504 52 51 1.0 2.0 0.00 0.09 0.09 77 1010.5
20260506181004 52 53 1.0 5.0 0.00 0.09 0.09 77 1010.4
20260506180505 52 43 2.0 6.0 0.00 0.09 0.09 76 1010.4
20260506180006 53 38 2.0 6.0 0.00 0.09 0.09 76 1010.3
20260506175504 53 45 2.0 5.0 0.00 0.09 0.09 76 1010.2
20260506175003 53 35 2.0 5.0 0.00 0.09 0.09 76 1010.2
20260506174504 53 28 2.0 6.0 0.00 0.09 0.09 76 1010.0
20260506174004 53 38 2.0 6.0 0.00 0.09 0.09 76 1010.1
20260506173503 53 45 2.0 8.0 0.00 0.09 0.09 75 1010.0
20260506173003 53 44 3.0 8.0 0.00 0.09 0.09 75 1010.0
20260506172503 53 42 2.0 8.0 0.00 0.09 0.09 75 1009.9
20260506172005 53 39 2.0 9.0 0.00 0.09 0.09 74 1009.9
20260506171504 54 45 2.0 9.0 0.00 0.09 0.09 74 1009.8
20260506171005 54 41 3.0 9.0 0.00 0.09 0.09 75 1009.8
20260506170506 54 39 3.0 9.0 0.00 0.09 0.09 74 1009.8
20260506170004 53 42 3.0 7.0 0.00 0.09 0.09 75 1009.9
20260506165503 53 40 3.0 7.0 0.00 0.09 0.09 75 1009.9
20260506165005 53 44 3.0 8.0 0.00 0.09 0.09 76 1009.9
20260506164505 53 42 2.0 8.0 0.00 0.09 0.09 76 1009.8
20260506164005 53 43 2.0 6.0 0.00 0.09 0.09 77 1009.8
20260506163505 53 47 3.0 8.0 0.00 0.09 0.09 76 1009.9
20260506163006 53 50 3.0 10.0 0.00 0.09 0.09 76 1009.8
20260506162505 52 51 4.0 16.0 0.00 0.09 0.09 77 1009.7
20260506162003 52 53 4.0 16.0 0.00 0.09 0.09 76 1009.7
20260506161503 53 46 4.0 12.0 0.00 0.09 0.09 76 1009.8
20260506161005 53 41 3.0 10.0 0.00 0.09 0.09 76 1009.7
20260506160503 52 54 4.0 14.0 0.00 0.09 0.09 77 1009.7
20260506160005 52 64 6.0 14.0 0.00 0.09 0.09 76 1009.7
20260506155503 52 70 5.0 12.0 0.00 0.09 0.09 77 1009.6
20260506155003 53 55 5.0 14.0 0.00 0.09 0.09 78 1009.7
20260506154503 53 46 5.0 14.0 0.00 0.09 0.09 77 1009.8
20260506154003 53 49 6.0 18.0 0.00 0.09 0.09 77 1009.7
20260506153720 53 50 6.0 18.0 0.00 0.09 0.09 76 1009.7
20260506153217 53 47 6.0 18.0 0.00 0.09 0.09 77 1009.7
20260506152504 52 45 5.0 13.0 0.00 0.09 0.09 78 1009.7
20260506152217 52 46 5.0 13.0 0.00 0.09 0.09 78 1009.6
20260506151507 52 39 6.0 14.0 0.00 0.09 0.09 78 1009.7
20260506151003 52 37 6.0 15.0 0.00 0.09 0.09 78 1009.7
20260506150722 53 36 6.0 15.0 0.00 0.09 0.09 78 1009.7
20260506150221 53 33 6.0 15.0 0.00 0.09 0.09 78 1009.6
20260506145503 53 36 6.0 15.0 0.00 0.09 0.09 78 1009.6
20260506145004 53 34 5.0 14.0 0.00 0.09 0.09 80 1009.4
20260506144722 53 42 4.0 11.0 0.00 0.09 0.09 82 1009.4
20260506144003 52 42 4.0 12.0 0.00 0.09 0.09 83 1009.4
20260506143508 52 38 5.0 13.0 0.00 0.09 0.09 83 1009.5
20260506143003 52 30 5.0 14.0 0.00 0.09 0.09 85 1009.5
20260506142718 52 27 5.0 14.0 0.00 0.09 0.09 85 1009.4
20260506142003 51 37 5.0 13.0 0.00 0.09 0.09 86 1009.4
20260506141718 51 42 5.0 13.0 0.00 0.09 0.09 86 1009.5
20260506141005 51 40 6.0 16.0 0.00 0.09 0.09 86 1009.5
20260506140505 51 41 4.0 12.0 0.00 0.09 0.09 88 1009.4
20260506140003 51 40 5.0 13.0 0.00 0.09 0.09 88 1009.4
20260506135503 50 39 6.0 14.0 0.00 0.09 0.09 88 1009.5
20260506135004 50 41 6.0 14.0 0.00 0.09 0.09 88 1009.4
20260506134503 50 35 5.0 14.0 0.00 0.09 0.09 88 1009.4
20260506134223 50 33 5.0 12.0 0.00 0.09 0.09 89 1009.6
20260506133504 50 38 5.0 14.0 0.00 0.09 0.09 89 1009.4
20260506133003 50 35 5.0 14.0 0.00 0.09 0.09 89 1009.4
20260506132504 50 29 6.0 18.0 0.00 0.09 0.09 89 1009.5
20260506132003 50 29 6.0 18.0 0.00 0.09 0.09 89 1009.5
20260506131506 50 33 5.0 12.0 0.00 0.09 0.09 90 1009.5
20260506131218 50 37 4.0 12.0 0.00 0.09 0.09 90 1009.4
20260506130506 50 31 4.0 12.0 0.00 0.09 0.09 90 1009.3
20260506130006 50 29 5.0 16.0 0.00 0.09 0.09 91 1009.3
20260506125503 50 32 4.0 16.0 0.01 0.09 0.09 91 1009.2
20260506125218 50 32 4.0 11.0 0.01 0.09 0.09 92 1009.1
20260506124717 50 30 5.0 11.0 0.01 0.09 0.09 92 1009.2
20260506124010 50 31 4.0 11.0 0.01 0.09 0.09 92 1009.2